Belvidere, Illinois, United States (61008)
Lat: 42.26N, Lon: 88.84W
Wx Zone: ILZ004
Local Info
Past Weather Observations for Monday, April 14, 2014

NOTE: This archive is for the closest National Weather Service station to Belvidere. Information may differ from the station used for current weather conditions.

Time Weather Temperature Dewpoint Humidity Pressure Winds Precip Visibility
23:54
Mostly Cloudy
Light Snow
28°F / -2°C 23°F / -5°C 80% 30.04 in
(1017 mb)
N 11.5 mph
(N 19 kph)
0.00 in
(0.00 mm)
9SM
23:46
Overcast
Light Snow
28°F / -2°C 25°F / -4°C 86% 30.04 in
(1017 mb)
NNW 5.8 mph
(NNW 9 kph)
0.00 in
(0.00 mm)
10SM
22:54
Partly Cloudy
28°F / -2°C 25°F / -4°C 86% 30.04 in
(1017 mb)
NNW 6.9 mph
(NNW 11 kph)
- 10SM
21:54
Partly Cloudy
30°F / -1°C 25°F / -4°C 80% 30.04 in
(1017 mb)
NNW 9.2 mph
(NNW 15 kph)
0.00 in
(0.00 mm)
8SM
21:36
Mostly Cloudy
30°F / -1°C 25°F / -4°C 80% 30.04 in
(1017 mb)
N 8.1 mph
(N 13 kph)
0.00 in
(0.00 mm)
7SM
21:14
Overcast
Light Snow
30°F / -1°C 27°F / -3°C 86% 30.04 in
(1017 mb)
NNW 9.2 mph
(NNW 15 kph)
0.00 in
(0.00 mm)
6SM
20:54
Overcast
30°F / -1°C 25°F / -4°C 80% 30.04 in
(1017 mb)
NNW 9.2 mph
(NNW 15 kph)
0.00 in
(0.00 mm)
7SM
19:54
Overcast
Light Snow
30°F / -1°C 27°F / -3°C 86% 30.04 in
(1017 mb)
N 10.4 mph
(N 17 kph)
0.00 in
(0.00 mm)
3SM
19:34
Overcast
Light Snow
30°F / -1°C 27°F / -3°C 86% 30.01 in
(1016 mb)
N 10.4 mph
(N 17 kph)
0.00 in
(0.00 mm)
3SM
19:23
Overcast
Light Snow
30°F / -1°C 28°F / -2°C 93% 30.01 in
(1016 mb)
NNW 11.5 mph
(NNW 19 kph)
0.00 in
(0.00 mm)
2SM
18:54
Overcast
Light Snow
30°F / -1°C 28°F / -2°C 93% 30.01 in
(1016 mb)
N 11.5 mph
(N 19 kph)
0.01 in
(0.25 mm)
2SM
18:43
Overcast
Light Snow
32°F / 0°C 28°F / -2°C 87% 30.01 in
(1016 mb)
NNW 10.4 mph
(NNW 17 kph)
0.00 in
(0.00 mm)
2SM
18:33
Overcast
Light Snow
32°F / 0°C 28°F / -2°C 87% 30.01 in
(1016 mb)
NNW 9.2 mph
(NNW 15 kph)
0.00 in
(0.00 mm)
2SM
18:20
Overcast
Light Snow
32°F / 0°C 28°F / -2°C 87% 29.98 in
(1015 mb)
NNW 8.1 mph
(NNW 13 kph)
0.00 in
(0.00 mm)
1 1/2SM
18:05
Overcast
Light Snow
32°F / 0°C 28°F / -2°C 87% 29.98 in
(1015 mb)
N 10.4 mph
(N 17 kph)
0.00 in
(0.00 mm)
2SM
17:54
Overcast
Light Snow
32°F / 0°C 28°F / -2°C 87% 29.98 in
(1015 mb)
N 9.2 mph
(N 15 kph)
0.01 in
(0.25 mm)
2SM
17:30
Overcast
Light Snow
32°F / 0°C 28°F / -2°C 87% 29.98 in
(1015 mb)
NNW 5.8 mph
(NNW 9 kph)
0.01 in
(0.25 mm)
3SM
16:54
Overcast
Light Snow
32°F / 0°C 28°F / -2°C 87% 29.98 in
(1015 mb)
NNW 15 mph
(NNW 24 kph)
0.01 in
(0.25 mm)
1SM
16:22
Overcast
Light Snow
32°F / 0°C 28°F / -2°C 87% 29.95 in
(1014 mb)
NNW 11.5 mph
(NNW 19 kph)
0.00 in
(0.00 mm)
1SM
15:54
Overcast
Light Snow
32°F / 0°C 28°F / -2°C 87% 29.95 in
(1014 mb)
NNW 15 mph
(NNW 24 kph)
0.02 in
(0.51 mm)
1SM
15:50
Overcast
Light Snow
32°F / 0°C 28°F / -2°C 87% 29.95 in
(1014 mb)
NNW 17.3 mph
(NNW 28 kph)
0.02 in
(0.51 mm)
1SM
15:30
Overcast
Light Snow
32°F / 0°C 28°F / -2°C 87% 29.95 in
(1014 mb)
N 15 mph
(N 24 kph)
0.02 in
(0.51 mm)
3/4SM
14:54
Overcast
Light Snow
32°F / 0°C 28°F / -2°C 87% 29.95 in
(1014 mb)
NNW 15 mph
(NNW 24 kph)
0.03 in
(0.76 mm)
3/4SM
14:46
Overcast
Snow
34°F / 1°C 30°F / -1°C 87% 29.95 in
(1014 mb)
NNW 11.5 mph
(NNW 19 kph)
0.03 in
(0.76 mm)
1/2SM
14:35
Overcast
Snow
34°F / 1°C 30°F / -1°C 87% 29.95 in
(1014 mb)
N 11.5 mph
(N 19 kph)
0.01 in
(0.25 mm)
1/2SM
14:31
Overcast
Light Snow
34°F / 1°C 30°F / -1°C 87% 29.92 in
(1013 mb)
NNW 12.7 mph
(NNW 20 kph)
0.01 in
(0.25 mm)
3/4SM
14:11
Overcast
Light Snow
34°F / 1°C 28°F / -2°C 81% 29.95 in
(1014 mb)
NNW 13.8 mph
(NNW 22 kph)
0.01 in
(0.25 mm)
1 1/2SM
13:54
Overcast
Light Snow
34°F / 1°C 28°F / -2°C 81% 29.95 in
(1014 mb)
NNW 15 mph
(NNW 24 kph)
0.00 in
(0.00 mm)
2SM
13:20
Overcast
Light Snow
34°F / 1°C 28°F / -2°C 81% 29.92 in
(1013 mb)
NNW 16.1 mph
(NNW 26 kph)
0.00 in
(0.00 mm)
2 1/2SM
13:06
Overcast
Light Snow
36°F / 2°C 28°F / -2°C 75% 29.92 in
(1013 mb)
NNW 12.7 mph
(NNW 20 kph)
0.00 in
(0.00 mm)
3SM
12:54
Overcast
Light Snow
36°F / 2°C 28°F / -2°C 75% 29.92 in
(1013 mb)
NNW 17.3 mph
(NNW 28 kph)
0.01 in
(0.25 mm)
5SM
12:51
Overcast
Light Snow
36°F / 2°C 28°F / -2°C 75% 29.92 in
(1013 mb)
N 15 mph
(N 24 kph)
0.01 in
(0.25 mm)
5SM
11:54
Overcast
Light Snow
36°F / 2°C 28°F / -2°C 75% 29.92 in
(1013 mb)
NNW 16.1 mph
(NNW 26 kph)
0.00 in
(0.00 mm)
4SM
10:54
Overcast
Light Snow
36°F / 2°C 28°F / -2°C 75% 29.89 in
(1012 mb)
N 15 mph
(N 24 kph)
0.00 in
(0.00 mm)
7SM
09:54
Overcast
36°F / 2°C 28°F / -2°C 75% 29.89 in
(1012 mb)
NNW 18.4 mph
(NNW 30 kph)
- 10SM
08:54
Overcast
37°F / 3°C 30°F / -1°C 75% 29.83 in
(1010 mb)
N 15 mph
(N 24 kph)
- 10SM
07:54
Overcast
37°F / 3°C 30°F / -1°C 75% 29.77 in
(1008 mb)
N 19.6 mph
(N 32 kph)
- 10SM
06:54
Overcast
37°F / 3°C 32°F / 0°C 81% 29.74 in
(1007 mb)
N 20.7 mph
(N 33 kph)
- 10SM
05:54
Overcast
37°F / 3°C 32°F / 0°C 81% 29.65 in
(1004 mb)
N 23 mph
(N 37 kph)
- 10SM
04:54
Overcast
37°F / 3°C 34°F / 1°C 87% 29.62 in
(1003 mb)
N 18.4 mph
(N 30 kph)
0.00 in
(0.00 mm)
10SM
04:44
Overcast
37°F / 3°C 34°F / 1°C 87% 29.62 in
(1003 mb)
N 19.6 mph
(N 32 kph)
0.00 in
(0.00 mm)
10SM
03:54
Overcast
Light Rain
39°F / 4°C 36°F / 2°C 87% 29.56 in
(1001 mb)
N 21.9 mph
(N 35 kph)
0.01 in
(0.25 mm)
5SM
02:54
Overcast
Light Rain
41°F / 5°C 37°F / 3°C 87% 29.5 in
(999 mb)
NNW 23 mph
(NNW 37 kph)
0.02 in
(0.51 mm)
6SM
02:34
Overcast
Light Rain
43°F / 6°C 39°F / 4°C 87% 29.47 in
(998 mb)
N 21.9 mph
(N 35 kph)
0.02 in
(0.51 mm)
3SM
02:25
Overcast
Light Rain
43°F / 6°C 39°F / 4°C 87% 29.44 in
(997 mb)
N 19.6 mph
(N 32 kph)
0.01 in
(0.25 mm)
2 1/2SM
02:11
Overcast
Light Rain
43°F / 6°C 39°F / 4°C 87% 29.44 in
(997 mb)
N 20.7 mph
(N 33 kph)
0.00 in
(0.00 mm)
3SM
01:54
Overcast
Light Rain
43°F / 6°C 39°F / 4°C 87% 29.42 in
(996 mb)
NNE 24.2 mph
(NNE 39 kph)
0.05 in
(1.27 mm)
10SM
01:38
Overcast
Light Rain
43°F / 6°C 39°F / 4°C 87% 29.42 in
(996 mb)
N 27.6 mph
(N 44 kph)
0.05 in
(1.27 mm)
10SM
01:27
Overcast
Light Rain
45°F / 7°C 41°F / 5°C 87% 29.42 in
(996 mb)
N 18.4 mph
(N 30 kph)
0.05 in
(1.27 mm)
8SM
01:15
Overcast
Rain
45°F / 7°C 43°F / 6°C 93% 29.42 in
(996 mb)
N 24.2 mph
(N 39 kph)
0.04 in
(1.02 mm)
3SM
01:12
Overcast
Rain
45°F / 7°C 43°F / 6°C 93% 29.42 in
(996 mb)
N 24.2 mph
(N 39 kph)
0.04 in
(1.02 mm)
2 1/2SM
01:10
Overcast
Light Rain
45°F / 7°C 43°F / 6°C 93% 29.42 in
(996 mb)
N 21.9 mph
(N 35 kph)
0.04 in
(1.02 mm)
2 1/2SM
00:54
Overcast
Rain
46°F / 8°C 45°F / 7°C 93% 29.42 in
(996 mb)
N 18.4 mph
(N 30 kph)
0.05 in
(1.27 mm)
4SM
00:46
Overcast
Rain
46°F / 8°C 45°F / 7°C 93% 29.39 in
(995 mb)
NNW 15 mph
(NNW 24 kph)
0.03 in
(0.76 mm)
5SM
Time Weather Temperature Dewpoint Humidity Pressure Winds Precip Visibility


Weather for websites

WeatherForYou.com, LLC is not responsible for any damages or problems caused by this service. Current weather conditions are obtained from the closest station including government and personal stations which may have varying degrees of accuracy. Weather forecasts are derived from the NOAA NDFD. Like all things, this site belongs to Jesus Christ... He just trusts me to maintain it. If you have any questions or comments email webmaster@weatherforyou.com

Copyright © 2014, WeatherForYou.com LLC. All rights reserved.